Location: Trois-Rivi�res
(46.3500°N, 72.5500°W)
Time: 04:34:48
(UTC-04:00)

Cosmos 1544 - Visible Passes

Search period start: 24 September 2017 00:00
Search period end: 04 October 2017 00:00
Orbit: 477 x 498 km, 82.5° (Epoch: 23 September)

Date Brightness Start Highest point End Pass type
(mag) Time Alt. Az. Time Alt. Az. Time Alt. Az.
24 Sep 4.6 19:13:42 10° SE 19:16:06 17° E 19:18:30 10° NE visible
24 Sep 4.9 20:47:42 10° SW 20:50:58 32° WNW 20:54:17 10° N visible
25 Sep 3.9 20:23:36 10° SSW 20:27:08 50° WNW 20:30:40 10° N visible
26 Sep 3.1 19:59:42 10° S 20:03:18 81° W 20:06:57 10° N visible
27 Sep 6.3 05:49:11 10° NNE 05:51:45 18° ENE 05:54:19 10° ESE visible
27 Sep 3.0 19:35:58 10° S 19:39:31 62° E 19:43:07 10° NNE visible
27 Sep 6.7 21:14:43 10° WNW 21:15:06 10° WNW 21:15:29 10° WNW visible
28 Sep 6.6 05:26:14 10° NE 05:27:47 12° ENE 05:29:21 10° E visible
28 Sep 3.5 19:12:24 10° SSE 19:15:46 39° E 19:19:11 10° NNE visible
28 Sep 6.3 20:48:57 10° WSW 20:51:07 15° WNW 20:53:17 10° NNW visible
29 Sep 5.7 20:24:18 10° SW 20:27:10 22° WNW 20:30:03 10° NNW visible
30 Sep 3.8 06:12:02 10° N 06:15:41 61° E 06:19:20 10° SSE visible
30 Sep 5.0 20:00:00 10° SW 20:03:15 32° WNW 20:06:35 10° N visible
01 Oct 4.7 05:48:21 10° N 05:51:50 39° ENE 05:55:19 10° SSE visible
01 Oct 4.0 19:35:53 10° SSW 19:39:23 50° WNW 19:42:57 10° N visible
02 Oct 5.6 05:24:48 10° NNE 05:27:58 26° ENE 05:31:06 10° SE visible
02 Oct 3.1 19:11:57 10° S 19:15:34 82° WNW 19:19:12 10° N visible
03 Oct 6.2 05:01:26 10° NNE 05:04:01 18° ENE 05:06:36 10° ESE visible
03 Oct 6.8 20:26:50 10° WNW 20:27:21 10° WNW 20:27:51 10° WNW visible
